Location: Almena City Lake
(39.8850°N, 99.6804°W)
Time: 06:39:20
(UTC+00:00)

Cosmos 1484 Rocket - Pass Details

Date: 18 February 2020
Orbit: 506 x 559 km, 97.4° (Epoch: 09 April)

Event Time Altitude Azimuth Distance (km) Brightness Sun altitude
Rises 11:23:47 0° 14° (NNE) 2,720 6.6 -24.5°
Reaches altitude 10° 11:25:55 10° 18° (NNE) 1,830 5.7 -24.1°
Maximum altitude 11:29:51 67° 100° (E) 605 3.1 -23.3°
Enters shadow 11:32:26 21° 180° (S) 1,280 4.6 -22.8°
